www.pogodaiklimat.ru
ПОГОДА в Кларксберге
Время
и дата
05:11 30.11
05:28 30.11
05:53 30.11
06:53 30.11
07:53 30.11
08:53 30.11
09:53 30.11
10:04 30.11
10:17 30.11
10:37 30.11
10:53 30.11
11:05 30.11
11:14 30.11
11:36 30.11
11:53 30.11
12:53 30.11
13:53 30.11
14:53 30.11
15:53 30.11
16:53 30.11
17:53 30.11
18:53 30.12
19:53 30.11
20:53 30.11
21:53 30.11
22:53 30.11
23:53 30.11
00:53 01.12
01:53 01.12
02:53 01.12
03:53 01.12
04:53 01.12
05:53 01.12
06:53 01.12
07:53 01.12
08:53 01.12
09:53 01.12
10:53 01.12
11:53 01.12
12:53 01.12
13:53 01.12
14:53 01.12
15:53 01.12
16:53 01.12
17:53 01.12
18:53 01.12
19:53 01.12
20:53 01.12
Ветер
(напр.,м/с)
Видим. Явления Облачность Т
(С)
Тd
(С)
f
(%)
Тe
(С)
Тes
(С)
Комфортность P
(гПа)
Po
(гПа)
Тmin
(С)
Tmax
(С)
R
(мм)
R24
(мм)
S
(см)
Ю 5
{8}
16 км слабый дождь 10/8 600 m
[Ac Ns]
+14.4 +10.0 75 +13 +13 964.7
Ю 6
{10}
16 км слабый дождь 10/5 630 m
[Ac Ns]
+14.4 +10.6 78 +13 +13 963.7
Ю 7
{11}
16 км слабый дождь 10/0 2400 m
[Ac As]
+14.4 +10.6 78 +12 +12 1005.9 963.7
Ю 6 16 км 10/8 1410 m
[Ac]
+15.0 +10.6 75 +13 +13 1005.8 963.7 +13.9 +15.6 3.0 3.0
Ю 5 16 км 10/10 1230 м +15.6 +9.4 67 +14 +14 1004.3 962.1
Ю 7
{11}
14 км слабый дождь 10/8 1200 m
[Ac Ns]
+15.6 +9.4 67 +14 +14 1004.1 962.1
ЮЗ 9
{12}
16 км слабый дождь 10/10 900 m
[Ns]
+15.0 +10.6 75 +13 +13 1004.4 962.1 0.8
ЮЗ 6
{11}
4 км сильный дождь 10/10 390 m
[Ns]
+14.4 +10.6 78 +13 +13 962.7
ЮЗ 7 16 км слабый дождь 10/10 390 m
[Ns]
+15.0 +11.1 77 +13 +13 962.7
ЮЗ 6
{10}
16 км слабый дождь 10/10 660 m
[Ns]
+15.0 +11.1 77 +13 +13 962.7
ЮЗ 6
{12}
16 км слабый дождь 10/10 570 m
[Ns]
+15.6 +11.1 75 +14 +14 1005.0 963.1
З 11
{21}
3 км дождь 10/10 420 m
[Ns]
+12.2 +7.8 74 +9 +9 964.7
З 12
{21}
10 км слабый дождь 10/10 450 m
[Ns]
+10.0 +4.4 68 +5 +5 965.3
З 13
{19}
16 км 10/10 540 м +9.4 +1.7 59 +4 +4 966.6
З 10
{17}
16 км 10/10 900 м +8.3 +0.6 58 +4 +4 1009.6 967.0
З 6
{10}
16 км 8/0 2250 m
[Ac]
+8.9 -0.6 51 +6 +6 1012.2 969.5 +7.8 +16.1 3.0
З 8
{13}
16 км ясно +8.9 -2.2 46 +5 +6 1013.2 970.5
З 7
{11}
16 км ясно +8.3 -3.9 42 +5 +6 1014.5 971.8
З 6 16 км ясно +7.8 -5.6 38 +4 +5 1015.5 972.5
З 7
{12}
16 км ясно +6.7 -6.1 40 +3 +3 1016.5 973.4
З 5 16 км 2/2 1500 м +5.6 -7.2 39 +2 +2 1018.0 974.7
З 6 16 км ясно +5.0 -7.8 39 +1 +1 1018.8 975.4 +5.0 +9.4
З 4
{8}
16 км ясно +3.9 -7.8 42 0 0 1019.5 976.0
З 4 16 км ясно +3.3 -7.8 44 -1 -1 1020.2 977.0
З 5
{11}
16 км ясно +3.3 -7.8 44 -1 -1 1020.8 977.3
З 8
{12}
16 км 8/8 1440 м +3.3 -8.3 42 -2 -2 1021.5 978.0
З 7
{13}
16 км 10/10 1320 м +2.8 -8.3 44 -3 -3 1022.2 978.3
З 7
{10}
16 км 10/10 1200 м +1.7 -7.8 49 -4 -4 1023.4 979.6 +1.7 +5.0
З 6
{9}
16 км 8/8 1110 м +0.6 -8.3 51 -5 -5 1024.7 980.6
З 5
{10}
16 км 10/10 1140 м +0.6 -8.9 49 -5 -5 1025.9 981.9
З 7
{11}
16 км 8/8 1020 м -0.6 -8.9 53 -7 -7 1026.9 982.8
З 6
{9}
16 км 8/8 960 м -0.6 -9.4 51 -7 -7 1028.4 984.1
З 6
{10}
16 км 8/8 960 м -0.6 -9.4 51 -7 -7 1029.9 985.4
З 5 16 км 5/5 960 м -1.7 -9.4 56 -8 -8 1031.1 986.4 -1.7 +1.7 3.0
ЮЗ 4 16 км 2/2 870 м -1.7 -9.4 56 -7 -7 1031.8 987.1
З 4
{9}
16 км ясно -1.1 -9.4 53 -6 -6 1032.7 988.0
ЮЗ 5 16 км ясно 0.0 -8.9 51 -5 -5 1033.6 989.0
З 4 16 км ясно +1.1 -8.3 49 -3 -2 1033.4 988.7
ЮЗ 4 16 км ясно +2.8 -7.8 46 -1 +2 1033.1 988.3
ЮЗ 4 16 км ясно +3.9 -8.3 41 0 +4 1032.4 987.7 -1.7 +3.9
З 4 16 км ясно +4.4 -8.9 37 +1 +4 1032.0 987.4
З 4 16 км ясно +5.0 -8.9 36 +2 +4 1032.3 987.7
З 2 16 км ясно +4.4 -9.4 36 +3 +5 1032.2 987.7
ЮЗ 3 16 км ясно +2.8 -9.4 40 0 0 1032.5 987.7
штиль 0 16 км ясно +2.2 -9.4 42 +2 +2 1032.7 988.0
штиль 0 16 км ясно +1.7 -8.9 45 +1 +1 1032.7 987.7 +0.6 +5.0
штиль 0 16 км ясно +1.1 -8.9 47 +1 +1 1032.2 987.4
штиль 0 16 км ясно -1.1 -7.8 60 -2 -2 1032.6 987.7
Местоположение метеостанции Clarksburg Benedum Airport: широта 39.3000 долгота -80.2247 высота над уровнем моря 366 м.
В архиве по умолчанию представлена погода в Кларксберге за последние 1-2 суток. Обновление информации о фактической погоде в базе происходит ежечасно! Архивные данные за месяц целиком и за предыдущие месяцы Вы можете получить, выбрав интересующий диапазон дат из раскрывающегося списка и нажав кнопку "Ввод!".
Внимание! Архив погоды МЕТАР в базе сайта по станциям, не включенным в климатический монитор, хранится не более 60 дней. Нет смысла пытаться выбрать более раннюю дату.
*Определитесь, кто Вы:
Внимание! Время в таблицах - местное (без учета летнего времени). Для получения всемирного времени необходимо вычесть поправку, которая равна -5 ч.
Смотрите также архив погоды в соседних городах и на ближайших метеорологических станциях:
Партнеры нашего сайта:      
Пояснения к столбцам:
  • Ветер - указаны скорость ветра в м/с - средняя за 10 мин, порывы в срок и между сроками (в фигурных скобках) и направление, откуда дует ветер: С - северный,
  • СВ - северо-восточный, В - восточный, ЮВ - юго-восточный, Ю - южный, ЮЗ - юго-западный, З - западный, СЗ - северо-западный.
  • Видимость - горизонтальная дальность видимости в метрах или километрах. При видимости от 1 до 10 км при отсутствии осадков обычно наблюдается дымка, при ухудшении видимости до 1 км и менее - туман. В сухую погоду видимость может ухудшаться дымом, пылью или мглою.
  • Явления - указаны атмосферные явления, наблюдавшиеся в срок или в последний час перед сроком; фигурными скобками обозначены явления, наблюдавшиеся между сроками (за 1-3 часа до срока); квадратными скобками обозначены град или гололедные отложения с указанием их диаметра в мм.
  • Облачность - указаны через наклонную черту общая и нижняя облачность в баллах и высота нижней границы облаков в метрах; квадратными скобками обозначены формы облаков: Ci - перистые, Cs - перисто-слоистые, Cc - перисто-кучевые, Ac - высококучевые, As - высокослоистые, Sc - слоисто-кучевые, Ns - слоисто-дождевые, Cu - кучевые, Cb - кучево-дождевые. Подробнее классификацию облаков см. в Атласе облаков (PDF).
  • T - Температура воздуха - температура, измеренная на высоте 2 м над землей.
  • Td - Температура точки росы - температура, при понижении до которой содержащийся в воздухе водяной пар достигнет насыщения.
  • f - Относительная влажность воздуха - влажноcть воздуха, измеренная на высоте 2 м над землей.
  • Te - Эффективная температура - температура, которую ощущает одетый по сезону человек в тени. Характеристика душности погоды. При расчете учитывается влияние влажности воздуха и скорости ветра на теплоощущения человека.
  • Tes - Эффективная температура на солнце - температура, которую ощущает человек, с поправкой на солнечный нагрев. Характеристика знойности погоды. Зависит от высоты солнца над горизонтом, облачности и скорости ветра. Ночью, в пасмурную погоду, а также при ветре 12 м/с и более поправка равна нулю.
  • P - Атмосферное давление - приведенное к уровню моря атмосферное давление.
  • Po - Атмосферное давление - измеренное на уровне метеостанции атмосферное давление.
  • Tmin - Минимальная температура - минимум температуры воздуха на высоте 2 м над землей.
  • Tmax - Максимальная температура - максимум температуры воздуха на высоте 2 м над землей.
  • R - Количество осадков - Количество выпавших осадков за период времени, мм. При наведении курсора мыши на число - период времени, за который выпало указанное количество осадков.
  • R24 - Количество осадков - Количество выпавших осадков за 24 часа, мм.
  • S - Снежный покров - Высота снежного покрова, см. При наведении курсора мыши на число - состояние снежного покрова и степень покрытия местности в баллах.